#timestamp,LO_Frequency,Hit,StdDev 
1622703615.6,286046999.0,P
1622703635.4,286046998.9,N
1622703655.3,286047000.9,N
1622703675.1,286046999.8,N
1622703695.8,286046997.0,N
1622703715.7,286046998.4,N
1622703735.5,286046997.7,N
1622703755.4,286046996.6,N
1622703775.2,286046997.0,N
1622703795.0,286046995.5,Y
1622703795.9,286046995.5,P
1622703815.8,286046998.3,N
1622703835.6,286047000.2,N
1622703855.5,286046999.9,N
1622703875.3,286046998.1,N
1622703895.1,286047001.2,N
1622703915.9,286046998.1,N
1622703935.7,286047000.1,N
1622703955.5,286047002.3,N
1622703975.4,286047002.6,N
1622703995.2,286047000.5,N
1622704015.1,286047000.9,N
1622704016.0,286047000.9,N
1622704035.8,286047002.4,N
1622704055.6,286047003.0,N
1622704075.5,286047003.0,N
1622704095.3,286047005.9,N
1622704115.1,286047002.2,N
1622704135.9,286047003.3,N
1622704155.7,286047003.8,N
1622704175.6,286047002.9,N
1622704195.4,286047005.8,N
1622704215.2,286047005.7,N
1622704235.1,286047005.5,N
1622704236.0,286047005.5,N
1622704255.8,286047001.4,N
1622704275.6,286047002.7,N
1622704295.5,286047000.3,N
1622704315.3,286047000.9,N
1622704335.2,286047000.7,N
1622704355.9,286046998.4,N
1622704375.7,286047002.6,N
1622704395.6,286047000.0,N
1622704415.4,286046998.2,N
1622704435.2,286046996.9,N
1622704455.1,286046999.6,N
1622704456.0,286046999.6,N
1622704475.8,286046999.3,N
1622704495.7,286047000.7,N
1622704515.5,286046998.2,N
1622704535.3,286046998.7,N
1622704555.2,286047000.9,N
1622704575.0,286046998.7,N
1622704575.9,286046998.7,N
1622704595.7,286046999.3,N
1622704615.6,286046996.5,N
1622704635.4,286046996.6,N
1622704655.3,286046997.5,N
1622704675.1,286046995.3,N
1622704676.0,286046995.3,N
1622704695.8,286046997.9,N
1622704715.7,286046995.3,N
1622704735.5,286046995.2,N
1622704755.3,286046993.9,N
1622704775.2,286046994.0,N
1622704795.0,286046993.9,N
1622704795.9,286046993.9,N
1622704815.8,286046993.7,N
1622704835.6,286046993.4,N
1622704855.4,286046994.1,N
1622704875.3,286046994.7,N
1622704895.1,286046994.5,N
1622704915.9,286046992.4,Y
1622704935.7,286046995.9,P
1622704955.6,286046996.4,P
1622704975.4,286046996.0,P
1622704995.2,286046993.3,Y
1622705015.1,286046998.4,P
1622705016.0,286046998.4,N
1622705035.8,286046999.2,N
1622705055.7,286046996.6,Y
1622705075.5,286047000.6,P
1622705095.3,286047000.2,N
1622705115.2,286047000.2,N
1622705135.0,286047001.0,N
1622705135.9,286047001.0,N
1622705155.7,286047000.7,N
1622705175.6,286046998.2,N
1622705195.4,286046998.4,N
1622705215.3,286046998.7,N
1622705235.1,286046998.4,N
1622705255.8,286046999.4,N
1622705275.7,286046999.5,N
1622705295.5,286046996.9,N
1622705315.4,286046996.7,N
1622705335.2,286046997.4,N
1622705355.0,286046997.3,N
1622705355.9,286046997.3,N
1622705375.8,286046997.1,N
1622705395.6,286046996.9,N
1622705415.4,286046996.8,N
1622705435.3,286046997.3,N
1622705455.1,286046996.8,N
1622705475.9,286046997.5,N
1622705495.7,286046997.8,N
1622705515.5,286046995.5,Y
1622705535.4,286046997.6,P
1622705555.2,286046994.9,P
1622705575.1,286046995.5,P
1622705576.0,286046995.5,Y
1622705595.8,286047001.2,P
1622705615.6,286046998.5,N
1622705635.5,286046998.8,N
1622705655.3,286046998.7,N
1622705675.2,286046998.7,N
1622705695.9,286046996.9,N
1622705715.7,286046996.8,N
1622705735.6,286046998.8,N
1622705755.4,286046998.6,N
1622705775.2,286047000.9,N
1622705795.1,286047001.0,N
1622705796.0,286047001.0,N
1622705815.8,286046998.8,N
1622705835.7,286046998.4,N
1622705855.5,286046999.2,N
1622705875.3,286046996.6,N
1622705895.2,286046999.1,N
1622705915.0,286046999.6,N
1622705915.9,286046999.6,N
1622705935.8,286047001.2,N
1622705955.6,286046998.5,N
1622705975.4,286046997.1,N
1622705995.3,286046996.5,N
1622706015.1,286047001.2,N
1622706035.8,286047001.1,N
1622706055.7,286047000.9,N
1622706075.5,286047000.1,N
1622706095.3,286047002.5,N
1622706115.2,286047000.2,N
1622706135.0,286046999.9,N
1622706135.9,286046999.9,N
1622706155.8,286046999.9,N
1622706175.6,286047000.0,N
1622706195.4,286047002.4,N
1622706215.3,286047000.9,N
1622706235.1,286047002.6,N
1622706255.9,286046999.7,N
1622706275.7,286047000.2,N
1622706295.5,286047000.0,N
1622706315.4,286047001.6,N
1622706335.2,286047003.8,N
1622706355.0,286047003.6,N
1622706356.0,286047003.6,N
1622706375.8,286047003.9,N
1622706395.6,286047004.4,N
1622706415.5,286047004.4,N
1622706435.3,286047001.5,N
1622706455.1,286047001.3,N
1622706475.9,286047001.5,N
1622706495.7,286047001.5,N
1622706515.6,286047001.8,N
1622706535.4,286047003.7,N
1622706555.2,286047005.9,Y
1622706575.1,286047003.9,P
1622706576.0,286047003.9,P
1622706595.8,286047004.2,P
1622706615.6,286047004.4,Y
1622706635.5,286047000.2,P
1622706655.3,286047000.4,N
1622706675.2,286047000.5,N
1622706695.9,286047000.4,N
1622706715.7,286046998.1,N
1622706735.6,286046998.2,N
1622706755.4,286047002.5,N
1622706775.2,286047001.6,N
1622706795.1,286047001.7,N
1622706796.0,286047001.7,N
1622706815.8,286047001.0,N
1622706835.7,286047001.1,N
1622706855.5,286047000.3,N
1622706875.3,286047000.1,N
1622706895.2,286047000.5,N
1622706915.0,286047002.3,N
1622706915.9,286047002.3,N
1622706935.8,286047000.2,N
1622706955.6,286046998.8,N
1622706975.4,286046998.7,N
1622706995.3,286046996.7,N
1622707015.1,286047000.7,N
1622707035.8,286047002.3,N
1622707055.7,286046998.6,N
1622707075.5,286047000.4,N
1622707095.4,286047001.1,N
1622707115.2,286047000.1,N
1622707135.0,286047002.4,N
1622707135.9,286047002.4,N
1622707155.8,286047000.9,N
1622707175.6,286047000.0,N
1622707195.4,286047002.1,N
